#timestamp,LO_Frequency,Hit,StdDev 
1692702015.3,286047000.1,N
1692702035.1,286047000.3,N
1692702055.8,286047000.9,N
1692702075.7,286046999.9,N
1692702095.5,286047000.0,N
1692702115.4,286047002.4,Y
1692702135.2,286047002.6,P
1692702155.0,286047001.6,N
1692702155.9,286047001.6,N
1692702175.8,286047002.1,N
1692702195.6,286047002.3,Y
1692702215.4,286047000.5,P
1692702235.3,286047000.6,N
1692702255.1,286046999.9,N
1692702275.9,286047000.5,N
1692702295.7,286047001.0,N
1692702315.5,286046999.7,N
1692702335.4,286047000.4,N
1692702355.2,286047002.7,Y
1692702375.0,286047001.2,P
1692702376.0,286047001.2,P
1692702395.8,286047000.9,N
1692702415.6,286046999.3,N
1692702435.5,286046999.2,N
1692702455.3,286046997.0,Y
1692702475.1,286046997.2,P
1692702495.9,286046999.6,N
1692702515.7,286046999.5,N
1692702535.6,286046996.7,N
1692702555.4,286046996.9,N
1692702575.2,286046997.2,N
1692702595.1,286046996.8,N
1692702596.0,286046996.8,N
1692702615.8,286046999.1,N
1692702635.6,286046996.8,N
1692702655.5,286046997.1,N
1692702675.3,286046999.6,N
1692702695.2,286046997.0,N
1692702715.9,286046999.6,N
1692702735.7,286046997.2,N
1692702755.6,286046996.6,N
1692702775.4,286046999.6,N
1692702795.2,286046997.0,N
1692702815.1,286046997.7,N
1692702816.0,286046997.7,N
1692702835.8,286046996.6,N
1692702855.7,286046997.0,N
1692702875.5,286046997.4,N
1692702895.3,286046997.3,N
1692702915.2,286046997.7,N
1692702935.9,286046994.9,Y
1692702955.7,286046999.5,P
1692702975.6,286046996.8,P
1692702995.4,286046999.1,N
1692703015.3,286046999.6,N
1692703035.1,286046997.4,N
1692703036.0,286046997.4,N
1692703055.8,286046999.2,N
1692703075.7,286046999.4,N
1692703095.5,286046997.1,N
1692703115.3,286046996.9,N
1692703135.2,286046996.5,Y
1692703155.0,286046998.6,P
1692703155.9,286046998.6,P
1692703175.8,286046998.4,P
1692703195.6,286046999.1,Y
1692703215.4,286047001.1,P
1692703235.3,286046999.9,N
1692703255.1,286047000.3,N
1692703275.8,286047000.6,N
1692703295.7,286047000.4,N
1692703315.5,286047000.6,N
1692703335.4,286047000.5,N
1692703355.2,286046998.5,N
1692703375.0,286047001.1,N
1692703375.9,286047001.1,N
1692703395.8,286047000.1,N
1692703415.6,286047000.7,N
1692703435.5,286047000.4,N
1692703455.3,286047000.8,N
1692703475.1,286047000.9,N
1692703495.9,286047000.6,N
1692703515.7,286047000.7,N
1692703535.6,286047001.1,N
1692703555.4,286047001.0,N
1692703575.2,286047000.8,N
1692703595.1,286046998.5,N
1692703596.0,286046998.5,N
1692703615.8,286046999.1,N
1692703635.6,286046999.5,N
1692703655.5,286046998.3,N
1692703675.3,286046998.7,N
1692703695.2,286046998.7,N
1692703715.9,286046999.5,N
1692703735.7,286046996.9,Y
1692703755.6,286046996.9,P
1692703775.4,286046996.9,N
1692703795.3,286046999.4,N
1692703815.1,286046999.5,N
1692703816.0,286046999.5,N
1692703835.8,286046999.2,N
1692703855.7,286046999.5,N
1692703875.5,286046997.8,N
1692703895.4,286046996.8,N
1692703915.2,286046997.2,N
1692703935.0,286046997.0,N
1692703935.9,286046997.0,N
1692703955.8,286046996.7,N
1692703975.6,286046996.9,N
1692703995.4,286046999.5,N
1692704015.3,286046997.9,N
1692704035.1,286046997.3,N
1692704055.8,286046997.8,N
1692704075.7,286046996.9,N
1692704095.5,286046996.9,N
1692704115.4,286046999.6,N
1692704135.2,286046999.5,N
1692704155.0,286046996.6,N
1692704155.9,286046996.6,N
1692704175.8,286046997.1,N
1692704195.6,286046998.9,N
1692704215.4,286046999.2,N
1692704235.3,286046998.9,N
1692704255.1,286046999.3,N
1692704275.9,286046996.5,N
1692704295.7,286046999.5,N
1692704315.5,286046999.6,N
1692704335.4,286046998.9,N
1692704355.2,286046999.2,N
1692704375.0,286046999.4,N
1692704375.9,286046999.4,N
1692704395.8,286046999.2,N
1692704415.6,286046999.5,N
1692704435.5,286046996.5,N
1692704455.3,286046997.1,N
1692704475.1,286046998.0,N
1692704495.9,286046996.1,Y
1692704515.7,286046999.1,P
1692704535.6,286046998.9,N
1692704555.4,286046999.4,N
1692704575.2,286046999.2,N
1692704595.1,286046998.8,N
1692704596.0,286046998.8,Y
1692704615.8,286047000.6,P
1692704635.6,286046998.1,N
1692704655.5,286046998.2,N
1692704675.3,286047000.7,N
1692704695.2,286046998.3,N
1692704715.9,286047001.2,N
1692704735.7,286046999.0,N
1692704755.6,286046998.7,N
1692704775.4,286046998.9,N
1692704795.2,286046999.0,N
1692704815.1,286046996.9,Y
1692704816.0,286046996.9,P
1692704835.8,286046998.8,N
1692704855.7,286046999.0,N
1692704875.5,286046998.3,N
1692704895.3,286046999.6,N
1692704915.2,286046999.4,N
1692704935.0,286046999.5,N
1692704935.9,286046999.5,N
1692704955.7,286046999.4,N
1692704975.6,286046999.1,N
1692704995.4,286046999.0,N
1692705015.3,286046998.8,N
1692705035.1,286046999.0,N
1692705036.0,286046999.0,N
1692705055.8,286046998.7,N
1692705075.7,286046999.4,N
1692705095.5,286046996.6,Y
1692705115.4,286047001.1,P
1692705135.2,286047001.0,N
1692705155.0,286047001.0,N
1692705155.9,286047001.0,N
1692705175.8,286047000.7,N
1692705195.6,286047001.2,N
1692705215.5,286047000.7,N
1692705235.3,286047000.3,N
1692705255.1,286047000.5,N
1692705275.9,286047002.7,Y
1692705295.7,286047000.4,P
1692705315.6,286047000.6,P
1692705335.4,286047001.1,P
1692705355.2,286047000.0,N
1692705375.1,286047001.2,Y
1692705376.0,286047001.2,P
1692705395.8,286046998.7,P
1692705415.6,286046998.1,N
1692705435.5,286047000.8,N
1692705455.3,286047000.3,N
1692705475.2,286047002.8,N
1692705495.9,286047000.4,N
1692705515.7,286047001.0,N
1692705535.6,286047001.2,N
1692705555.4,286046998.3,N
1692705575.2,286047001.1,N
1692705595.1,286047000.0,N
1692705596.0,286047000.0,N
